Location: Unspecified
(0.0000°N, 0.0000°E)
Time: 04:53:33
(UTC+00:00)

SJ-6F - Pass Details

Date: 06 August 2021
Orbit: 570 x 594 km, 97.8° (Epoch: 26 September)

Event Time Altitude Azimuth Distance (km) Brightness Sun altitude
Rises 04:20:58 0° 4° (N) 2,767 8.2 -25.1°
Reaches altitude 10° 04:23:09 10° 359° (N) 1,869 7.2 -24.5°
Enters shadow 04:25:22 30° 345° (NNW) 1,034 5.7 -24.0°
